sat.trackr.live / text

‹ back to catalog

STARLINK-36462

NORAD 67321 · 2026-002S

PAYLOAD ACTIVE UNKNOWN

§ Identity

Operator
Country
US
Launch date
2026-01-04
Launch site
AFETR
Launch vehicle
Mass (kg)
RCS (m²)

Purposes: comms

External: N2YO · Heavens-Above · Gunter

§ Orbital elements

Epoch: 2026-05-24T17:14:51.485280Z

Period
94.27 min
Inclination
43.0005°
Eccentricity
0.0001736
Mean motion
15.27589974 rev/d
Perigee alt
481.8 km
Apogee alt
484.2 km
Semi-major
6,861.2 km
B*
5.2911e-4
RAAN
256.1509°
Arg perigee
272.8494°
Mean anomaly
87.2159°
Rev number
2,270

§ Raw data

STARLINK-364621 67321U 26002S   26144.71865145  .00014331  00000+0  52911-3 0  99952 67321  43.0005 256.1509 0001736 272.8494  87.2159 15.27589974 22704

JSON: /api/v1/satellites/67321 · /tle

For live sub-satellite position, see the globe view (requires WebGL).

§ Visibility from observer

Set your observer location to see the next 7 days of passes ≥ 10°. The values pass through the URL so the page stays shareable.

No JS? Fill the form by hand. The geolocation button needs JavaScript.